Location: Campillo
(40.8621°N, 4.2488°W)
Time: 12:27:36
(UTC+00:00)

SL-4 R/B - Pass Details

Date: 11 May 2021
Orbit: 427 x 663 km, 51.6° (Epoch: 13 June)

Event Time Altitude Azimuth Distance (km) Brightness Sun altitude
Rises 20:52:50 0° 294° (WNW) 2,797 7.2 -14.9°
Reaches altitude 10° 20:55:25 10° 280° (W) 1,937 5.7 -15.3°
Maximum altitude 20:58:53 22° 229° (SW) 1,343 4.0 -15.8°
Enters shadow 21:01:39 14° 185° (S) 1,777 4.3 -16.2°
